Regional Weather Roundup
Issued by NWS Albany, NY

Home | Current Version | Previous Version | Graphics & Text | Print | Product List | Glossary On
Versions: 1 2 3 4 5 6 7 8 9 10 11 12 13 14 15 16 17 18 19 20 21 22 23 24 25 26 27 28 29 30 31 32 33 34 35 36 37 38 39 40 41 42 43 44 45 46 47 48 49 50
000
ASUS41 KALY 012310
RWRALY

NEW YORK STATE HOURLY WEATHER ROUNDUP
NATIONAL WEATHER SERVICE ALBANY NY
700 PM EDT MON SEP 01 2014

NOTE: "FAIR" INDICATES FEW OR NO CLOUDS BELOW 12,000 FEET WITH NO
SIGNIFICANT WEATHER AND/OR NO OBSTRUCTIONS TO VISIBILITY.

NYZ032-033-038>043-046>054-057>066-NYZ062>081-020000-
EAST


CITY           SKY/WX    TMP DP  RH WIND       PRES   REMARKS
ALBANY         MOCLDY    82  67  60 SE3       29.90F
GLENS FALLS    CLEAR     79  68  69 S3        29.89F
POUGHKEEPSIE   PTCLDY    82  72  71 SE3       29.90F
NEWBURGH       PTCLDY    84  72  65 CALM      29.94F
MONTGOMERY     MOCLDY    83  70  64 SW5       29.92F
WHITE PLAINS   PTCLDY    77  74  90 S3        29.94S
ISLIP          PTCLDY    79  71  76 S8        29.92F
NEW YORK CITY  MOCLDY    83  72  69 S9        29.91F
CENTRAL PARK   CLEAR     81  72  74 CALM      29.94F
$$

NYZ005>009-017-018-044>046-055-056-020000-
CENTRAL


CITY           SKY/WX    TMP DP  RH WIND       PRES   REMARKS
FULTON         PTCLDY    79  68  69 CALM      29.86F
SYRACUSE       PTCLDY    83  68  60 S6        29.86F
ROME           CLEAR     81  68  64 S8        29.89F
ELMIRA         CLEAR     80  69  69 S5        29.89F
BINGHAMTON     PTCLDY    77  68  73 S7        29.96S
MONTICELLO     PTCLDY    77  70  78 S5        29.98S
$$

NYZ026>034-041>043-020000-
NORTH


CITY           SKY/WX    TMP DP  RH WIND       PRES   REMARKS
WATERTOWN      CLEAR     82  67  60 CALM      29.84F
FORT DRUM      NOT AVBL
MASSENA        CLEAR     79  70  74 CALM      29.86F
SARANAC LAKE   CLEAR     72  64  76 CALM      29.93F
PLATTSBURGH    PTCLDY    78  67  68 N3        29.87S
$$

NYZ001>004-010>016-019>021-020000-
WEST


CITY           SKY/WX    TMP DP  RH WIND       PRES   REMARKS
NIAGARA FALLS  MOCLDY    80  68  66 SW12      29.84R
BUFFALO        MOCLDY    80  68  66 S9        29.85S
DUNKIRK        PTCLDY    80  68  66 SW12      29.86S
JAMESTOWN      PTCLDY    75  66  73 S8        29.93R
WELLSVILLE     CLEAR     74  66  76 S8        29.98S
ROCHESTER      MOCLDY    80  72  76 CALM      29.85S
PENN YAN       CLEAR     81  69  67 S6        29.89F
$$

             KEY
       WCI = WIND CHILL INDEX
       VSB = VISIBILITY
       HX  = HEAT INDEX
$$



USA.gov is the U.S. government's official web portal to all federal, state and local government web resources and services.